Flag for U.S.A. Weather past 2 weeks in Rochester, New York, U.S.A.

Now
50 °F

Passing clouds.


Feels Like: 45 °F
Forecast: 32 / 46 °F
Wind: 14 mph from North

Location: Greater Rochester International Airport

Current Time: Apr 25, 2015 at 4:54:55 PM

Latest Report: Apr 25, 2015 at 3:54 PM


Visibility: 10 mi

Pressure: 29.85 "Hg

Humidity: 39%

Dew point: 26 °F

Location of RochesterLocation

Historic Weather in Rochester — Graph

°F

Rochester temperature yesterday

Maximum temperature yesterday: 42 °F (at 4:54 PM)
Minimum temperature yesterday: 32 °F (at 6:54 AM)
Average temperature yesterday: 36 °F

Past Weeks' High & Low Weather Summary

 TemperatureHumidityPressure
High83 °F (Apr 13, 4:54 PM)97% (Apr 17, 6:54 AM)30.44 "Hg (Apr 17, 6:54 AM)
Low27 °F (Apr 25, 5:54 AM)20% (Apr 16, 1:54 PM)29.41 "Hg (Apr 20, 4:54 PM)
Average49 °F57%29.99 "Hg
* Reported Apr 10 3:54 PM — Apr 25 3:54 PM, Rochester, Weather by CustomWeather, © 2015

Note: Actual official high and low records may vary slightly from our data, if they occured in-between our weather recording intervals... More about our weather records

Advertising

Rochester weather history for previous 24 hours

 ConditionsComfort  
Time TempWeatherWind HumidityBarometerVisibility
3:54 PM
Sat, Apr 25
50 °FPassing clouds.14 mph39%29.85 "Hg10 mi
2:54 PM49 °FPassing clouds.12 mph43%29.89 "Hg10 mi
1:54 PM48 °FPassing clouds.9 mph46%29.90 "Hg10 mi
12:54 PM48 °FPassing clouds.12 mph41%29.93 "Hg10 mi
11:54 AM46 °FPassing clouds.6 mph44%29.95 "Hg10 mi
10:54 AM43 °FPassing clouds.5 mph45%29.97 "Hg10 mi
9:54 AM42 °FPassing clouds.7 mph49%29.98 "Hg10 mi
8:54 AM38 °FSunny.3 mph60%29.98 "Hg10 mi
7:54 AM33 °FSunny.No wind72%30.00 "Hg10 mi
6:54 AM29 °FClear.5 mph79%30.00 "Hg10 mi
5:54 AM27 °FClear.6 mph81%30.00 "Hg10 mi
4:54 AM30 °FClear.7 mph75%29.99 "Hg10 mi
3:54 AM31 °FClear.9 mph73%29.99 "Hg10 mi
2:54 AM31 °FClear.7 mph73%30.00 "Hg10 mi
1:54 AM30 °FClear.7 mph72%30.02 "Hg10 mi
12:54 AM32 °FClear.7 mph69%30.01 "Hg10 mi
11:54 PM
Fri, Apr 24
34 °FClear.7 mph64%30.01 "Hg10 mi
10:54 PM35 °FClear.9 mph61%30.03 "Hg10 mi
9:54 PM36 °FClear.9 mph62%30.02 "Hg10 mi
8:54 PM37 °FBroken clouds.8 mph54%30.02 "Hg10 mi
7:54 PM39 °FBroken clouds.12 mph48%29.98 "Hg10 mi
6:54 PM42 °FPartly sunny.14 mph39%29.98 "Hg10 mi
5:54 PM42 °FPartly sunny.21 mph39%29.98 "Hg10 mi
4:54 PM42 °FPartly sunny.15 mph39%29.98 "Hg10 mi
Weather by CustomWeather, © 2015

See weather overviewHow to use our weather pages